Date,TemperatureHighF,TemperatureAvgF,TemperatureLowF,DewpointHighF,DewpointAvgF,DewpointLowF,HumidityHigh,HumidityAvg,HumidityLow,PressureMaxIn,PressureMinIn,WindSpeedMaxMPH,WindSpeedAvgMPH,GustSpeedMaxMPH,PrecipitationSumIn
2014-1-1,39.4,20.8,15.1,34.0,-3.3,-99.9,94,69,77,25.45,25.16,17,-215,26,0.00
2014-1-2,36.7,21.5,14.3,25.0,-7.1,-99.9,89,56,59,25.43,25.19,10,-220,15,0.01
2014-1-3,56.9,34.3,23.9,29.0,-1.4,-99.9,87,40,26,25.17,24.81,29,-192,41,0.00
2014-1-4,28.5,14.2,11.4,25.0,-15.1,-99.9,87,59,56,25.26,25.00,19,-245,29,0.00
2014-1-5,12.7,1.1,-9.9,9.0,-25.5,-99.9,86,59,62,25.53,25.25,20,-212,24,0.00
2014-1-6,31.4,14.2,-10.4,17.0,-17.4,-99.9,75,46,49,25.43,25.22,18,-214,27,0.00
2014-1-7,39.3,25.5,17.1,29.0,-3.6,-99.9,91,51,44,25.24,25.16,11,-198,14,0.00
2014-1-8,40.3,23.2,21.6,29.0,-6.6,-99.9,94,58,58,25.29,25.18,13,-248,18,0.00
2014-1-9,48.9,25.5,18.3,26.0,-8.3,-99.9,90,48,31,25.17,24.93,11,-243,15,0.00
2014-1-10,39.8,26.4,29.1,22.0,-11.4,-99.9,66,37,38,25.06,24.89,29,-235,34,0.00
2014-1-11,55.7,34.4,30.5,29.0,0.3,-99.9,73,41,34,25.14,24.89,22,-191,33,0.00
2014-1-12,42.1,28.2,28.1,26.0,-7.2,-99.9,76,40,32,25.12,24.82,26,-210,39,0.00
2014-1-13,46.8,31.9,27.5,26.0,-3.6,-99.9,63,37,35,25.18,25.06,39,-186,45,0.00
2014-1-14,36.9,23.2,22.6,30.0,-5.0,-99.9,90,53,49,25.51,25.19,23,-192,34,0.00
2014-1-15,51.7,32.7,31.7,25.0,-4.5,-99.9,68,36,32,25.41,25.18,27,-205,32,0.00
2014-1-16,39.3,27.8,29.4,21.0,-8.4,-99.9,66,35,34,25.44,25.23,32,-184,45,0.00
2014-1-17,49.4,30.5,26.3,19.0,-8.2,-99.9,66,34,25,25.37,25.23,15,-211,26,0.00
2014-1-18,47.2,31.5,29.5,22.0,-3.7,-99.9,61,37,33,25.37,25.22,30,-180,43,0.00
2014-1-19,61.5,38.2,31.0,20.0,-5.2,-99.9,55,26,17,25.26,25.14,24,-180,36,0.00
2014-1-20,43.3,30.3,22.0,17.0,-1.2,-99.9,76,39,28,25.52,25.19,30,-129,41,0.00
2014-1-21,54.2,31.3,19.7,16.0,-10.6,-99.9,80,31,11,25.48,25.30,24,-183,31,0.00
2014-1-22,37.0,21.1,9.0,24.0,-8.5,-99.9,86,52,38,25.53,25.30,18,-208,22,0.00
2014-1-23,21.6,9.2,0.4,12.0,-18.9,-99.9,85,59,65,25.67,25.41,11,-229,16,0.00
2014-1-24,51.8,32.2,14.0,19.0,-6.9,-99.9,73,31,27,25.42,25.27,27,-181,35,0.00
2014-1-25,57.8,38.9,36.0,23.0,-4.0,-99.9,44,26,22,25.34,25.13,21,-170,30,0.00
2014-1-26,50.6,26.0,13.4,27.0,-6.2,-99.9,83,41,28,25.37,25.05,27,-167,39,0.00
2014-1-27,17.2,8.7,2.2,10.0,-20.1,-99.9,85,56,42,25.37,25.31,12,-228,22,0.00
2014-1-28,30.3,12.3,-4.5,9.0,-17.5,-99.9,84,48,29,25.40,25.21,14,-189,21,0.00
2014-1-29,51.6,30.2,13.3,30.0,-3.6,-99.9,59,39,34,25.19,24.71,19,-183,29,0.00
2014-1-30,49.2,22.9,17.2,34.0,-2.2,-99.9,92,66,47,25.06,24.72,17,-214,39,0.00
2014-1-31,22.0,14.2,15.1,17.0,-12.6,-99.9,91,64,79,25.08,24.96,12,-235,21,0.00
2014-2-1,20.4,9.9,1.1,16.0,-12.3,-99.9,88,68,78,25.29,25.01,13,-186,16,0.00
2014-2-2,26.2,7.5,-3.9,15.0,-15.9,-99.9,89,63,61,25.29,25.16,11,-185,12,0.00
2014-2-3,35.4,15.4,-1.2,19.0,-8.4,-99.9,90,60,48,25.19,25.08,10,-170,13,0.00
2014-2-4,12.5,2.2,-7.3,10.0,-18.6,-99.9,91,69,81,25.50,25.17,15,-172,18,0.00
2014-2-5,3.4,-7.6,-19.2,-3.0,-28.6,-99.9,83,66,66,25.57,25.46,7,-169,8,0.00
2014-2-6,6.8,-2.6,-14.8,-3.0,-26.7,-99.9,82,61,61,25.45,25.14,8,-190,10,0.00
2014-2-7,29.0,11.2,-10.2,19.0,-12.5,-99.9,79,59,58,25.13,24.96,10,-169,12,0.00
2014-2-8,38.0,20.6,12.2,27.0,-2.0,-99.9,89,63,56,25.28,25.01,12,-162,18,0.00
2014-2-9,11.8,7.1,6.6,9.0,-14.9,-99.9,89,68,77,25.31,25.21,6,-187,13,0.00
2014-2-10,34.9,13.1,7.2,21.0,-7.8,-99.9,89,68,55,25.30,25.30,9,-168,14,0.02
2014-2-11,37.4,22.1,7.4,29.0,-0.3,-99.9,94,63,61,25.29,25.11,19,-162,36,0.03
2014-2-12,44.4,26.8,17.3,31.0,3.1,-99.9,87,59,54,25.32,25.00,20,-155,36,0.01
2014-2-13,47.6,34.4,31.6,33.0,7.0,-99.9,93,54,54,25.10,24.96,20,-174,30,0.00
2014-2-14,43.9,28.4,23.6,30.0,3.2,-99.9,95,56,33,25.26,25.02,15,-154,23,0.00
2014-2-15,42.0,30.5,29.9,32.0,9.4,-99.9,94,65,60,25.27,24.98,13,-151,18,0.00
2014-2-16,54.3,34.6,31.4,35.0,5.7,-99.9,82,51,47,25.20,24.91,33,-181,43,0.00
2014-2-17,48.1,33.5,27.8,29.0,3.0,-99.9,87,43,31,25.25,25.05,22,-141,42,0.00
2014-2-18,47.0,32.7,27.5,27.0,5.1,-99.9,87,49,33,25.22,24.98,21,-143,35,0.00
2014-2-19,55.7,33.2,27.0,32.0,6.5,-99.9,90,53,33,25.14,24.76,28,-155,34,0.00
2014-2-20,36.0,25.5,26.7,19.0,-9.2,-99.9,67,36,22,25.13,24.98,32,-166,37,0.00
2014-2-21,39.5,28.8,23.5,25.0,5.5,-99.9,89,55,41,25.13,25.00,22,-120,35,0.00
2014-2-22,38.9,22.9,20.8,28.0,5.2,-99.9,93,74,56,25.23,25.07,11,-146,11,0.00
2014-2-23,21.7,14.8,14.1,20.0,-5.0,-99.9,92,74,84,25.29,25.22,0,-177,0,0.00
2014-2-24,43.5,14.9,3.8,31.0,-5.7,-99.9,92,68,62,25.45,25.11,27,-161,30,0.15
2014-2-25,10.4,5.3,-3.7,7.0,-12.8,-99.9,88,71,75,25.49,25.23,11,-143,13,0.00
2014-2-26,35.6,14.1,-8.4,23.0,-6.7,-99.9,88,63,59,25.41,25.15,13,-142,19,0.00
2014-2-27,48.1,27.6,8.7,34.0,6.7,-99.9,88,63,51,25.14,24.82,12,-136,18,0.07
2014-2-28,41.6,22.3,10.8,35.0,5.3,-99.9,89,73,73,25.16,24.82,19,-129,25,0.00
2014-3-1,10.7,2.1,-4.0,8.0,-15.9,-99.9,89,71,78,25.32,25.10,13,-142,17,0.00
2014-3-2,17.3,6.0,-4.3,11.0,-10.5,-99.9,89,71,72,25.37,25.28,13,-122,19,0.00
2014-3-3,48.0,32.1,11.7,32.0,10.1,-99.9,87,58,49,25.27,25.14,23,-120,28,0.00
2014-3-4,48.0,34.4,32.8,36.0,13.9,-99.9,91,64,53,25.26,25.08,19,-131,24,0.00
2014-3-5,52.1,35.6,28.7,34.0,11.6,-99.9,95,57,37,25.32,25.21,15,-136,20,0.00
2014-3-6,56.0,40.8,33.2,34.0,11.9,-99.9,76,44,31,0.00,40.00,18,-122,22,0.00
2014-3-7,51.0,29.6,32.5,35.0,9.1,-99.9,97,73,49,25.37,25.05,12,-176,16,0.04
2014-3-8,53.3,36.6,30.1,34.0,13.5,-99.9,100,58,34,25.47,25.37,11,-123,16,0.01
2014-3-9,68.7,47.3,37.0,30.0,9.0,-99.9,69,31,14,25.37,25.21,28,-111,28,0.00
2014-3-10,66.1,46.8,38.6,35.0,10.5,-99.9,60,33,18,25.24,24.90,17,-123,21,0.00
2014-3-11,52.2,28.8,24.4,30.0,6.0,-99.9,95,63,33,25.49,24.90,23,-150,33,0.00
2014-3-12,47.6,31.3,23.4,25.0,5.9,-99.9,79,50,27,0.00,40.00,17,-110,20,0.00
2014-3-13,61.2,40.1,28.9,29.0,5.6,-99.9,78,38,16,25.33,25.02,19,-118,28,0.00
2014-3-14,60.6,39.8,31.3,29.0,6.8,-99.9,75,40,13,25.25,25.10,12,-115,22,0.00
2014-3-15,42.3,32.2,29.4,34.0,13.4,-99.9,93,65,50,25.48,25.07,31,-106,37,0.00
2014-3-16,60.1,38.7,22.5,29.0,9.6,-99.9,94,47,21,25.48,25.15,19,-114,27,0.00
2014-3-17,66.0,43.8,37.7,32.0,9.0,-99.9,62,35,12,25.13,24.64,26,-106,37,0.00
2014-3-18,37.8,26.8,24.8,29.0,6.3,-99.9,95,65,45,25.28,24.72,26,-130,34,0.00
2014-3-19,46.0,29.3,15.8,23.0,4.6,-99.9,86,52,33,25.31,25.21,16,-99,27,0.00
2014-3-20,60.5,41.1,26.0,28.0,7.9,-99.9,80,37,16,25.20,25.05,19,-92,27,0.00
2014-3-21,43.7,30.5,27.3,25.0,5.8,-99.9,80,50,34,25.39,25.16,19,-109,26,0.00
2014-3-22,27.1,19.7,16.0,22.0,6.9,-99.9,91,77,81,25.54,25.34,10,-92,15,0.00
2014-3-23,53.4,28.1,15.8,34.0,10.4,-99.9,92,67,29,25.52,25.16,20,-98,24,0.05
2014-3-24,42.5,29.7,25.5,25.0,10.8,-99.9,91,61,37,25.47,25.35,13,-88,20,0.00
2014-3-25,54.3,35.1,24.0,31.0,12.5,-99.9,79,53,37,25.48,25.00,20,-87,29,0.00
2014-3-26,69.3,46.6,28.9,37.0,15.1,-99.9,81,41,12,25.00,24.64,21,-79,27,0.00
2014-3-27,46.3,34.1,31.7,37.0,17.4,-99.9,95,71,61,25.08,24.71,18,-109,20,0.05
2014-3-28,50.3,36.4,32.4,33.0,14.9,-99.9,95,56,34,25.36,25.05,19,-87,27,0.00
2014-3-29,64.9,44.0,28.3,27.0,10.7,-99.9,80,38,14,25.36,25.14,17,-79,26,0.00
2014-3-30,69.5,47.3,33.8,35.0,9.7,-99.9,69,32,14,25.14,24.72,26,-112,42,0.00
2014-3-31,47.3,33.4,27.3,35.0,10.3,-99.9,82,54,45,25.22,24.78,37,-102,46,0.00
2014-4-1,55.4,35.3,27.4,37.0,15.0,-99.9,85,57,29,25.24,24.96,22,-77,31,0.00
2014-4-2,52.0,33.7,28.9,35.0,10.7,-99.9,90,58,40,25.07,24.93,12,-133,19,0.00
2014-4-3,46.4,32.5,28.0,34.0,9.0,-99.9,95,56,28,25.29,25.02,28,-114,33,0.00
2014-4-4,55.8,37.6,24.3,30.0,11.2,-99.9,83,47,21,25.29,25.13,12,-82,19,0.00
2014-4-5,60.4,44.4,34.6,29.0,14.1,-99.9,68,38,23,25.14,25.07,16,-81,22,0.00
2014-4-6,57.7,40.9,32.8,35.0,18.5,-99.9,89,53,28,25.18,25.07,20,-78,32,0.00
2014-4-7,50.6,37.8,33.3,33.0,16.2,-99.9,88,54,32,25.36,25.19,27,-73,42,0.00
2014-4-8,69.2,48.7,34.7,31.0,16.3,-99.9,68,37,19,25.37,25.26,19,-77,26,0.00
2014-4-9,77.4,57.9,45.8,33.0,18.8,-99.9,54,28,13,25.26,25.05,20,-56,34,0.00
2014-4-10,62.8,47.0,36.1,36.0,22.5,-99.9,84,49,32,25.29,25.14,22,-79,25,0.00
2014-4-11,73.1,53.0,35.3,37.0,19.6,-99.9,82,38,17,25.27,25.01,18,-67,22,0.00
2014-4-12,68.5,52.8,42.4,40.0,20.8,-99.9,79,37,26,25.06,24.94,14,-77,19,0.01
2014-4-13,41.8,24.9,21.6,36.0,12.9,-99.9,94,80,80,25.41,25.06,25,-83,27,0.01
2014-4-14,38.3,27.0,14.8,22.0,9.6,-99.9,90,60,37,25.45,25.32,20,-56,26,0.00
2014-4-15,62.4,43.4,24.3,28.0,14.1,-99.9,79,40,18,25.31,24.92,20,-58,28,0.00
2014-4-16,51.7,40.0,32.5,32.0,17.1,-99.9,85,51,31,25.34,24.93,29,-73,35,0.00
2014-4-17,60.6,41.1,30.5,39.0,23.9,-99.9,96,64,31,25.35,25.21,14,-57,24,0.00
2014-4-18,77.9,57.0,36.1,42.0,23.9,-99.9,86,39,15,25.21,25.07,16,-56,25,0.00
2014-4-19,65.5,50.8,43.9,40.0,25.0,-99.9,74,45,33,25.29,25.09,14,-69,16,0.00
2014-4-20,76.8,57.3,42.6,44.0,28.4,-99.9,87,44,18,25.35,25.21,15,-48,18,0.00
2014-4-21,68.1,52.3,41.2,33.0,20.6,-99.9,58,36,21,25.48,25.33,12,-59,18,0.00
2014-4-22,80.1,58.2,44.5,45.0,28.0,-99.9,67,40,18,25.33,24.89,19,-55,27,0.00
2014-4-23,66.7,52.9,47.1,41.0,19.8,-99.9,67,34,17,25.12,24.82,24,-54,30,0.00
2014-4-24,66.2,47.4,38.0,32.0,7.5,-99.9,71,28,14,25.20,25.08,17,-108,30,0.00
2014-4-25,71.8,55.9,43.6,31.0,19.2,-99.9,52,29,19,25.14,24.92,23,-56,29,0.00
2014-4-26,77.6,56.4,37.9,44.0,24.8,-99.9,71,38,15,24.92,24.63,20,-47,30,0.00
2014-4-27,51.0,39.1,33.8,43.0,29.7,-99.9,96,81,59,24.84,24.63,37,-35,46,0.02
2014-4-28,48.4,23.6,37.2,36.0,-26.8,-99.9,95,37,42,25.12,24.82,34,-431,43,0.00
2014-4-29,42.5,27.5,31.9,36.0,-5.8,-99.9,93,53,56,25.43,25.13,47,-255,59,0.00
2014-4-30,47.1,23.1,30.1,31.0,-21.1,-99.9,84,43,50,25.44,25.39,39,-371,42,0.00
2014-5-1,56.1,35.4,35.9,29.0,-12.8,-99.9,73,26,20,25.41,25.30,31,-254,33,0.00
2014-5-2,75.5,52.9,31.8,39.0,23.1,-99.9,81,42,20,25.31,25.13,16,-58,24,0.00
2014-5-3,82.4,34.7,40.0,43.0,-19.2,-99.9,85,32,12,25.20,25.07,15,-403,22,0.00
2014-5-4,82.5,47.9,41.5,47.0,1.5,-99.9,95,33,11,25.14,25.00,21,-266,27,0.00
2014-5-5,76.8,58.4,41.0,50.0,37.5,-99.9,90,54,17,25.14,24.98,15,-27,19,0.00
2014-5-6,73.9,57.4,43.8,49.0,39.2,-99.9,91,59,35,24.99,24.86,15,-37,32,0.07
2014-5-7,61.6,46.4,35.7,52.0,38.4,-99.9,97,83,63,25.08,24.90,29,-34,32,0.52
2014-5-8,46.5,36.9,31.9,40.0,29.6,-99.9,98,85,72,25.18,25.03,21,-35,27,0.14
2014-5-9,62.3,49.1,36.3,44.0,31.3,-99.9,92,60,31,25.16,25.03,16,-35,24,0.00
2014-5-10,66.5,50.9,40.4,46.0,30.8,-99.9,91,56,22,25.10,25.02,20,-35,32,0.21
2014-5-11,46.8,31.9,32.1,44.0,21.9,-99.9,98,87,90,25.30,25.02,22,-85,27,0.29
2014-5-12,43.5,34.5,30.6,33.0,24.3,-99.9,98,76,51,25.53,25.27,24,-31,29,0.12
2014-5-13,52.5,39.9,29.6,36.0,23.8,-99.9,85,61,33,25.58,25.53,22,-22,30,0.02
2014-5-14,58.2,43.4,33.5,38.0,27.1,-99.9,84,61,33,25.58,25.47,20,-34,32,0.00
2014-5-15,60.8,47.8,35.9,39.0,27.7,-99.9,85,54,32,25.47,25.32,15,-36,21,0.00
2014-5-16,60.0,48.1,43.2,45.0,33.2,-99.9,89,66,42,25.36,25.23,23,-44,31,0.00
2014-5-17,61.9,47.3,42.4,47.0,35.8,-99.9,91,74,57,25.34,25.24,14,-47,22,0.04
2014-5-18,81.3,55.5,41.6,52.0,42.3,-99.9,92,69,30,25.24,24.92,24,-17,28,0.00
2014-5-19,80.4,62.8,49.7,49.0,40.7,-99.9,85,52,23,25.12,24.94,29,-17,46,0.00
2014-5-20,73.5,66.1,54.5,49.0,47.2,45.0,81,53,37,25.28,25.17,15,6,29,0.00
2014-5-21,70.6,59.4,50.3,54.0,48.5,-99.9,92,70,52,25.38,25.25,18,-7,25,0.01
2014-5-22,71.2,58.1,51.2,58.0,42.1,-99.9,91,68,55,25.40,25.33,16,-71,24,0.01
2014-5-23,69.2,56.7,53.4,56.0,45.0,-99.9,94,75,53,25.38,25.30,14,-49,20,0.00
2014-5-24,68.0,61.2,53.5,56.0,54.4,52.0,95,79,59,25.30,25.19,20,6,26,0.00
2014-5-25,77.6,59.3,51.4,58.0,46.1,-99.9,100,72,35,25.27,25.19,8,-36,17,0.00
2014-5-26,77.2,63.3,51.6,56.0,51.1,47.0,91,67,37,25.29,25.25,13,3,24,0.11
2014-5-27,86.1,68.8,47.6,56.0,49.8,45.0,91,56,29,25.37,25.24,9,2,18,0.00
2014-5-28,87.9,72.8,55.4,55.0,47.5,37.0,77,45,17,25.34,25.26,13,5,18,0.00
2014-5-29,89.3,70.7,55.9,52.0,39.8,-99.9,74,39,19,25.29,25.21,20,-45,27,0.00
2014-5-30,72.8,61.9,56.3,58.0,54.9,49.0,96,79,57,25.37,25.26,19,5,21,0.70
2014-5-31,78.6,59.7,56.3,58.0,37.2,-99.9,96,60,36,25.35,25.13,19,-110,45,0.02
2014-6-1,76.8,61.7,52.0,60.0,49.0,-99.9,89,69,46,25.29,25.11,20,-26,28,0.00
2014-6-2,79.9,64.2,47.4,55.0,48.3,45.0,91,61,31,25.35,25.24,12,4,15,0.00
2014-6-3,89.8,70.4,54.7,62.0,54.4,30.0,96,65,12,25.25,25.01,26,7,28,0.00
2014-6-4,83.9,68.4,52.2,58.0,52.0,40.0,96,62,21,25.25,25.10,16,5,24,0.00
2014-6-5,80.7,63.4,50.8,52.0,38.1,-99.9,91,50,20,25.28,25.21,8,-39,13,0.00
2014-6-6,76.8,61.0,49.4,59.0,49.9,45.0,97,70,38,25.32,25.15,17,7,24,0.19
2014-6-7,61.3,48.1,45.4,52.0,36.0,-99.9,98,80,67,25.39,25.30,10,-82,14,0.01
2014-6-8,58.4,48.8,46.3,56.0,41.3,-99.9,100,89,90,25.33,25.15,24,-53,34,0.45
2014-6-9,70.3,52.4,43.5,46.0,29.9,-99.9,98,56,25,25.36,25.25,18,-66,21,0.00
2014-6-10,85.8,65.2,43.1,52.0,45.1,39.0,93,55,20,25.25,25.08,11,3,21,0.00
2014-6-11,74.5,61.2,52.0,55.0,50.5,46.0,84,69,46,25.33,25.07,19,6,26,0.00
2014-6-12,69.4,58.3,48.6,49.0,46.1,43.0,91,66,40,25.43,25.31,14,4,20,0.00
2014-6-13,87.9,68.5,50.7,56.0,50.6,46.0,86,57,24,25.31,24.91,17,6,25,0.00
2014-6-14,73.7,59.4,48.1,53.0,39.8,-99.9,86,55,32,25.12,24.90,22,-33,37,0.01
2014-6-15,76.1,54.6,43.1,47.0,21.6,-99.9,86,41,26,25.20,25.09,15,-130,25,0.00
2014-6-16,88.3,70.4,52.4,50.0,43.2,26.0,88,45,11,25.08,24.96,20,6,23,0.00
2014-6-17,87.2,68.4,52.3,62.0,37.4,-99.9,75,41,15,25.08,24.96,13,-51,24,0.00
2014-6-18,78.8,63.8,51.5,51.0,39.9,34.0,93,46,23,25.29,24.95,20,9,30,0.41
2014-6-19,80.7,60.4,48.0,50.0,33.3,-99.9,93,47,21,25.34,25.24,16,-60,22,0.01
2014-6-20,88.0,71.5,51.2,57.0,44.8,33.0,79,45,15,25.35,25.22,11,3,13,0.00
2014-6-21,86.3,69.2,54.7,57.0,51.7,47.0,87,59,27,25.25,25.14,14,4,21,0.00
2014-6-22,77.2,64.6,53.0,56.0,52.4,47.0,90,67,43,25.35,25.21,28,5,34,0.00
2014-6-23,76.1,57.8,48.5,57.0,35.9,-99.9,93,59,45,25.37,25.30,12,-102,15,0.00
2014-6-24,79.2,63.6,57.5,59.0,44.1,-99.9,87,59,41,25.37,25.30,8,-59,15,0.00
2014-6-25,84.5,68.0,56.6,59.0,55.0,47.0,94,66,37,25.34,25.16,16,5,29,0.10
2014-6-26,86.0,59.7,53.3,63.0,32.3,-99.9,95,55,33,25.22,24.97,18,-155,33,0.51
2014-6-27,86.4,61.7,51.6,58.0,44.3,-99.9,95,65,32,25.09,24.99,13,-61,26,0.62
2014-6-28,83.1,68.3,53.1,53.0,44.6,35.0,88,49,18,25.20,25.05,18,7,24,0.00
2014-6-29,89.1,72.7,51.9,56.0,47.7,36.0,88,49,17,25.22,25.13,15,4,18,0.00
2014-6-30,78.8,68.6,56.0,56.0,45.7,31.0,68,47,21,25.36,25.13,18,8,30,0.00
2014-7-1,76.2,63.8,51.5,49.0,43.8,40.0,70,50,28,25.48,25.36,22,8,28,0.00
2014-7-2,78.1,64.7,48.0,53.0,48.1,44.0,87,58,34,25.50,25.38,13,4,19,0.00
2014-7-3,87.4,72.1,55.6,61.0,55.1,52.0,89,59,32,25.39,25.30,14,6,19,0.00
2014-7-4,94.7,73.5,58.8,60.0,48.5,-99.9,88,49,19,25.36,25.30,16,-28,32,0.01
2014-7-5,97.8,77.5,57.4,54.0,41.4,-99.9,75,36,13,25.36,25.28,12,-38,16,0.00
2014-7-6,90.0,74.2,58.7,60.0,47.6,-99.9,66,43,29,25.37,25.30,14,-26,19,0.00
2014-7-7,89.3,73.2,63.1,61.0,54.5,-99.9,83,57,35,25.43,25.23,25,-15,25,0.00
2014-7-8,83.0,69.8,57.4,58.0,53.8,49.0,91,60,36,25.47,25.35,10,3,24,0.00
2014-7-9,91.8,70.9,59.4,59.0,46.3,-99.9,85,50,24,25.37,25.19,20,-38,26,0.01
2014-7-10,95.0,71.2,57.9,61.0,52.7,48.0,86,53,21,25.28,25.16,17,5,34,0.03
2014-7-11,90.3,69.2,61.8,66.0,59.1,58.0,94,70,35,25.42,25.26,18,3,29,0.20
2014-7-12,80.5,64.5,61.1,62.0,55.8,57.0,96,69,47,25.49,25.38,12,4,17,0.00
2014-7-13,85.3,70.8,59.4,63.0,59.4,56.0,94,70,39,25.50,25.39,9,2,22,0.31
2014-7-14,78.6,66.5,57.9,59.0,52.4,47.0,90,60,42,25.53,25.42,16,5,18,0.00
2014-7-15,72.6,60.2,52.4,58.0,50.9,46.0,92,69,56,25.53,25.27,21,6,28,0.01
2014-7-16,66.4,56.0,55.9,60.0,53.1,54.0,96,84,79,25.34,25.25,10,2,14,0.04
2014-7-17,74.7,60.5,53.7,56.0,50.6,52.0,96,67,47,25.35,25.26,18,4,19,0.00
2014-7-18,91.1,73.4,55.6,61.0,52.2,43.0,93,56,19,25.26,25.19,18,5,22,0.00
2014-7-19,88.7,71.6,57.6,61.0,54.3,48.0,84,55,33,25.28,25.15,13,4,18,0.00
2014-7-20,99.3,80.1,62.8,49.0,39.6,24.0,51,25,7,25.27,25.14,18,6,27,0.00
2014-7-21,99.1,79.3,64.3,56.0,44.9,38.0,57,30,13,25.34,25.22,15,4,21,0.00
2014-7-22,91.8,76.5,62.8,61.0,53.3,48.0,72,45,26,25.51,25.33,14,4,19,0.00
2014-7-23,91.0,71.0,63.0,66.0,58.0,50.0,95,61,39,25.56,25.35,21,7,26,0.00
2014-7-24,101.2,74.0,64.5,64.0,53.0,45.0,88,48,15,25.36,25.18,15,6,26,0.05
2014-7-25,88.6,70.7,65.1,64.0,53.9,50.0,92,53,32,25.29,25.21,16,6,25,0.15
2014-7-26,90.8,73.7,60.5,62.0,50.1,45.0,79,44,25,25.42,25.23,14,4,16,0.00
2014-7-27,85.1,70.0,60.2,61.0,50.0,48.0,93,50,29,25.56,25.42,10,3,14,0.00
2014-7-28,87.5,71.0,56.3,63.0,53.7,49.0,78,55,31,25.54,25.42,9,2,17,0.01
2014-7-29,82.8,67.7,55.9,61.0,56.9,53.0,96,71,41,25.48,25.37,14,2,21,1.06
2014-7-30,68.5,56.9,59.0,62.0,52.0,55.0,96,75,63,25.50,25.46,14,4,16,0.02
2014-7-31,86.3,66.7,55.2,57.0,47.3,43.0,95,52,24,25.47,25.39,7,2,9,0.00
2014-8-1,86.9,68.3,53.5,57.0,45.0,39.0,85,45,20,25.45,25.39,11,2,14,0.00
2014-8-2,86.9,69.4,56.7,57.0,44.9,41.0,79,42,21,25.45,25.39,8,3,14,0.00
2014-8-3,88.6,72.4,57.5,57.0,48.2,45.0,82,43,23,25.43,25.33,10,4,22,0.00
2014-8-4,90.0,72.3,62.0,58.0,49.4,46.0,67,43,22,25.35,25.30,18,4,22,0.00
2014-8-5,78.2,38.1,62.1,60.0,30.9,53.0,77,35,51,25.35,25.30,10,2,14,0.00
2014-8-6,85.8,53.5,58.9,60.0,38.5,50.0,91,37,31,25.37,25.27,13,4,29,0.29
2014-8-7,86.9,65.8,56.8,60.0,51.3,49.0,92,58,30,25.36,25.23,19,4,34,0.00
2014-8-8,80.5,47.9,53.6,61.0,39.1,48.0,88,49,32,25.34,25.24,10,2,16,0.10
2014-8-9,87.6,69.8,57.6,57.0,50.5,47.0,88,52,25,25.42,25.27,14,5,23,0.00
2014-8-10,83.7,66.6,55.7,56.0,50.3,46.0,90,56,29,25.53,25.43,15,4,16,0.00
2014-8-11,87.4,67.8,53.7,59.0,51.3,45.0,90,57,23,25.53,25.44,10,2,21,0.00
2014-8-12,90.9,70.4,53.1,60.0,51.9,49.0,100,56,25,25.49,25.34,10,3,17,0.00
2014-8-13,92.3,73.7,61.0,60.0,49.5,40.0,85,45,16,25.38,25.27,18,5,27,0.00
2014-8-14,89.9,71.9,63.2,61.0,53.3,54.0,86,50,30,25.29,25.22,9,3,17,0.00
2014-8-15,89.2,71.3,61.7,60.0,52.2,49.0,87,51,26,25.32,25.24,16,4,21,0.00
2014-8-16,92.4,72.1,58.9,56.0,45.9,40.0,79,40,17,25.34,25.27,12,3,16,0.00
2014-8-17,94.5,73.6,57.7,58.0,38.5,26.0,85,34,9,25.32,25.23,13,4,21,0.00
2014-8-18,91.0,65.8,54.2,60.0,48.3,42.0,88,51,23,25.29,25.21,14,3,16,0.21
2014-8-19,91.7,69.5,54.1,61.0,50.8,48.0,91,53,24,25.23,25.08,16,3,27,0.00
2014-8-20,89.2,69.2,62.2,61.0,50.5,46.0,80,51,24,25.21,25.11,16,4,22,0.01
2014-8-21,87.6,69.8,60.9,56.0,46.2,44.0,80,42,23,25.33,25.20,13,4,21,0.00
2014-8-22,80.0,60.9,59.4,60.0,51.0,48.0,95,64,40,25.36,25.21,15,4,25,0.15
2014-8-23,85.5,57.3,54.8,60.0,50.0,43.0,96,68,36,25.24,25.11,13,2,20,0.17
2014-8-24,81.6,64.3,51.8,45.0,38.9,31.0,72,40,16,25.30,25.21,16,5,24,0.00
2014-8-25,77.6,59.0,48.6,57.0,45.3,41.0,91,55,39,25.44,25.30,11,3,17,0.10
2014-8-26,81.4,63.6,54.5,62.0,52.4,51.0,96,64,41,25.42,25.34,13,4,24,0.00
2014-8-27,74.4,59.5,60.7,62.0,54.4,57.0,97,76,59,25.38,25.30,12,3,17,0.02
2014-8-28,64.8,53.1,52.9,58.0,48.6,50.0,93,74,70,25.35,25.28,13,4,21,0.23
2014-8-29,79.8,60.4,50.3,55.0,46.3,47.0,91,56,33,25.34,25.24,18,5,23,0.00
2014-8-30,87.7,64.5,53.6,56.0,44.0,38.0,89,47,18,25.33,25.10,16,4,23,0.00
2014-8-31,77.6,54.6,53.8,55.0,41.0,39.0,86,51,25,25.22,25.09,18,5,30,0.03
2014-9-1,78.9,57.4,47.0,51.0,41.1,34.0,90,54,20,25.33,25.18,12,3,22,0.00
2014-9-2,85.5,61.3,44.7,53.0,42.4,36.0,89,50,18,25.33,25.15,14,4,22,0.00
2014-9-3,94.2,71.8,60.5,55.0,38.5,33.0,73,30,12,25.13,25.04,16,6,27,0.00
2014-9-4,75.5,58.2,52.7,48.0,37.2,37.0,83,39,30,25.45,25.08,16,5,23,0.03
2014-9-5,59.3,46.1,48.3,52.0,42.2,46.0,94,73,70,25.54,25.47,16,3,20,0.03
2014-9-6,75.7,55.6,48.1,53.0,45.0,47.0,97,60,41,25.54,25.43,14,4,17,0.00
2014-9-7,86.0,62.4,49.8,57.0,41.5,37.0,94,45,18,25.41,25.21,11,3,19,0.00
2014-9-8,86.5,65.8,54.6,49.0,39.6,35.0,68,36,16,25.23,25.16,16,4,19,0.00
2014-9-9,73.3,58.4,52.8,56.0,45.8,48.0,91,56,45,25.20,25.10,17,6,25,0.01
2014-9-10,67.9,49.2,45.6,50.0,41.3,43.0,94,66,48,25.35,25.24,13,5,27,0.00
2014-9-11,45.0,34.3,31.9,43.0,33.3,31.0,100,84,93,25.61,25.38,13,4,17,0.08
2014-9-12,49.6,35.0,30.7,34.0,28.3,30.0,97,68,52,25.67,25.46,10,4,21,0.10
2014-9-13,70.7,48.2,31.4,44.0,32.3,30.0,94,53,24,25.44,25.33,14,3,22,0.00
2014-9-14,77.1,52.4,40.1,54.0,42.7,38.0,94,64,40,25.37,25.21,13,2,16,0.00
2014-9-15,68.5,49.8,39.0,51.0,39.3,38.0,93,60,43,25.53,25.38,16,4,24,0.00
2014-9-16,85.3,61.5,46.3,51.0,38.6,34.0,93,43,16,25.38,25.26,15,4,19,0.00
2014-9-17,91.1,64.2,51.2,47.0,38.0,38.0,64,35,16,25.29,25.21,12,3,19,0.00
2014-9-18,90.3,63.5,50.8,60.0,41.0,39.0,85,40,17,25.25,25.13,17,5,23,0.00
2014-9-19,90.9,66.9,57.6,58.0,44.5,41.0,83,41,21,25.24,25.13,12,4,24,0.00
2014-9-20,82.3,56.2,53.0,53.0,37.9,41.0,83,39,28,25.52,25.25,12,2,15,0.00
2014-9-21,73.9,55.9,50.1,44.0,37.1,38.0,75,42,32,25.58,25.47,13,3,25,0.00
2014-9-22,76.4,55.8,55.2,59.0,44.5,41.0,92,57,44,25.47,25.30,15,5,21,0.13
2014-9-23,81.6,59.6,55.0,53.0,40.9,42.0,91,43,27,25.36,25.27,17,5,23,0.00
2014-9-24,87.0,60.6,52.1,49.0,37.9,41.0,74,39,21,25.44,25.37,8,2,11,0.00
2014-9-25,86.4,63.1,52.7,53.0,39.7,42.0,75,36,23,25.42,25.31,17,5,23,0.00
2014-9-26,87.5,62.8,53.4,49.0,39.6,42.0,73,36,23,25.30,25.21,18,5,24,0.00
2014-9-27,85.5,60.3,51.3,48.0,38.8,39.0,75,39,20,25.24,25.17,11,2,17,0.00
2014-9-28,76.1,54.6,48.7,55.0,44.6,45.0,95,59,44,25.31,25.24,13,4,27,0.16
2014-9-29,68.1,46.3,47.6,57.0,43.1,46.0,97,71,63,25.28,24.99,17,5,29,0.75
2014-9-30,69.0,50.7,45.7,47.0,34.1,34.0,100,45,28,25.09,25.00,25,8,30,0.24
2014-10-1,63.6,44.6,40.7,45.0,36.2,37.0,94,63,42,25.26,25.08,14,5,25,0.29
2014-10-2,63.8,40.8,33.3,39.0,26.2,27.0,94,44,27,25.48,25.23,23,8,31,0.29
2014-10-3,52.9,36.5,31.4,32.0,25.1,23.0,95,56,33,25.54,25.43,21,7,28,0.01
2014-10-4,70.5,47.0,32.2,38.0,27.7,27.0,87,43,21,25.40,25.20,16,4,22,0.00
2014-10-5,67.3,47.3,42.3,40.0,33.0,35.0,76,49,35,25.26,25.21,20,6,30,0.00
2014-10-6,75.4,51.1,41.4,43.0,33.1,35.0,86,44,24,25.23,25.08,19,5,26,0.00
2014-10-7,75.5,60.6,47.3,46.0,40.7,37.0,82,51,28,25.33,25.18,10,3,19,0.00
2014-10-8,79.9,37.5,40.8,47.0,28.9,37.0,89,47,26,25.33,25.21,10,2,15,0.00
2014-10-9,-200.0,0.0,200.0,-99.9,0.0,200.0,0,0,100,25.41,25.26,0,0,0,0.00
2014-10-10,-200.0,0.0,200.0,-99.9,0.0,200.0,0,0,100,25.45,25.35,0,0,0,0.00
2014-10-11,-200.0,0.0,200.0,-99.9,0.0,200.0,0,0,100,25.34,25.05,0,0,0,0.00
2014-10-12,-200.0,0.0,200.0,-99.9,0.0,200.0,0,0,100,25.28,24.96,0,0,0,0.00
2014-10-13,-200.0,0.0,200.0,-99.9,0.0,200.0,0,0,100,25.39,25.29,0,0,0,0.00
2014-10-14,-200.0,0.0,200.0,-99.9,0.0,200.0,0,0,100,25.36,25.30,0,0,0,0.00
2014-10-15,-200.0,0.0,200.0,-99.9,0.0,200.0,0,0,100,25.30,25.10,0,0,0,0.00
2014-10-16,-200.0,0.0,200.0,-99.9,0.0,200.0,0,0,100,25.34,25.11,0,0,0,0.00
2014-10-17,-200.0,0.0,200.0,-99.9,0.0,200.0,0,0,100,25.41,25.33,0,0,0,0.00
2014-10-18,-200.0,0.0,200.0,-99.9,0.0,200.0,0,0,100,25.42,25.25,0,0,0,0.00
2014-10-19,-200.0,0.0,200.0,-99.9,0.0,200.0,0,0,100,25.36,25.25,0,0,0,0.00
2014-10-20,-200.0,0.0,200.0,-99.9,0.0,200.0,0,0,100,25.37,25.26,0,0,0,0.00
2014-10-21,80.4,56.0,38.7,46.0,38.1,36.0,88,50,24,25.26,25.13,10,3,16,0.00
2014-10-22,66.0,54.5,40.8,48.0,39.0,32.0,86,59,31,25.35,25.19,16,4,20,0.02
2014-10-23,74.2,52.7,35.3,44.0,34.9,32.0,88,56,23,25.36,25.26,19,4,23,0.00
2014-10-24,82.0,61.5,48.4,37.0,32.0,26.0,62,37,13,25.37,25.28,14,4,26,0.00
2014-10-25,81.1,59.0,40.4,35.0,31.3,27.0,67,40,14,25.41,25.17,10,4,14,0.00
2014-10-26,74.7,59.5,46.5,41.0,35.7,31.0,67,43,22,25.16,25.01,13,4,23,0.00
2014-10-27,53.1,44.1,30.0,41.0,29.2,21.0,91,58,32,25.29,25.06,20,8,28,0.09
2014-10-28,57.4,40.8,28.2,25.0,22.2,20.0,75,51,23,25.41,25.31,14,3,18,0.00
2014-10-29,72.0,47.7,30.0,30.0,23.6,17.0,75,46,12,25.40,25.24,20,6,30,0.00
2014-10-30,60.3,46.3,33.7,31.0,28.1,26.0,80,52,29,25.60,25.40,13,3,16,0.00
2014-10-31,55.5,39.1,27.0,32.0,28.2,25.0,94,69,37,25.61,25.27,29,6,33,0.00
2014-11-1,72.7,43.8,27.2,39.0,30.5,23.0,86,64,22,25.26,25.03,12,2,16,0.00
2014-11-2,65.1,48.4,35.6,40.0,35.6,31.0,84,64,33,25.08,25.02,9,2,12,0.00
2014-11-3,50.1,37.1,30.6,39.0,33.4,28.0,95,87,60,25.42,25.05,13,5,17,0.30
2014-11-4,56.2,39.9,27.2,31.0,25.4,22.0,89,60,28,25.45,25.31,15,5,22,0.04
2014-11-5,58.3,47.0,34.5,32.0,29.2,22.0,83,52,33,25.58,25.33,19,6,25,0.00
2014-11-6,68.0,45.9,30.3,38.0,30.9,27.0,87,61,26,25.59,25.25,7,3,10,0.00
2014-11-7,64.0,51.5,38.7,37.0,31.9,24.0,80,50,29,25.51,25.18,22,9,32,0.00
2014-11-8,63.4,45.9,30.6,37.0,30.6,25.0,87,59,32,25.52,25.21,16,6,27,0.00
2014-11-9,66.4,55.1,40.5,30.0,26.0,22.0,51,34,23,25.21,24.77,14,5,21,0.00
2014-11-10,59.1,28.0,10.3,32.0,17.0,5.0,91,68,27,25.37,24.73,29,11,35,0.00
2014-11-11,11.6,7.3,1.0,5.0,1.7,-4.0,82,77,66,25.57,25.36,15,7,18,0.00
2014-11-12,5.9,-1.1,-10.1,-4.0,-8.1,-15.0,79,72,57,25.64,25.56,18,7,24,0.00
2014-11-13,14.4,3.0,-13.9,6.0,-5.1,-19.0,79,69,55,25.28,25.26,16,6,19,0.00
2014-11-14,30.4,19.7,9.3,20.0,11.1,3.0,80,70,52,25.25,25.05,16,5,26,0.00
2014-11-15,24.7,9.8,-2.1,20.0,3.7,-7.0,87,76,64,25.38,25.03,19,9,27,0.00
2014-11-16,30.2,15.9,-1.1,12.0,3.5,-7.0,79,61,35,25.37,25.26,27,10,34,0.00
2014-11-17,30.6,18.5,6.0,8.0,5.4,1.0,83,59,33,25.39,25.32,18,5,25,0.00
2014-11-18,47.2,31.3,14.4,19.0,13.6,5.0,71,51,27,25.33,25.19,25,9,30,0.00
2014-11-19,45.9,32.0,17.1,21.0,18.1,12.0,81,59,36,25.33,25.23,12,3,17,0.00
2014-11-20,57.0,33.9,16.7,21.0,14.0,11.0,82,51,17,25.25,25.17,7,2,13,0.00
2014-11-21,59.1,39.8,26.3,25.0,19.5,16.0,71,48,20,25.20,25.13,12,2,17,0.00
2014-11-22,60.5,41.6,25.2,29.0,20.2,15.0,72,47,17,25.13,24.81,10,4,16,0.00
2014-11-23,43.8,33.3,21.4,31.0,18.2,12.0,78,56,34,25.10,24.86,26,12,36,0.00
2014-11-24,38.4,30.8,21.9,26.0,18.4,12.0,80,61,41,25.37,25.05,26,11,35,0.00
2014-11-25,46.1,31.7,16.1,31.0,20.3,10.0,94,66,37,25.36,25.07,22,10,33,0.00
2014-11-26,31.3,26.1,16.9,26.0,22.8,15.0,92,87,77,25.45,25.28,20,4,24,0.00
2014-11-27,54.5,38.8,16.4,32.0,25.8,14.0,90,63,36,25.44,25.22,12,4,19,0.05
2014-11-28,64.3,51.3,33.3,26.0,20.0,16.0,56,32,16,25.22,24.98,16,6,24,0.00
2014-11-29,67.8,49.4,23.2,20.0,15.5,10.0,83,29,11,24.97,24.85,17,5,25,0.00
2014-11-30,22.1,16.5,11.1,20.0,11.4,5.0,92,81,60,25.57,24.94,13,5,14,0.00
2014-12-1,39.0,25.6,15.7,23.0,13.6,6.0,82,62,45,25.57,25.23,26,8,28,0.00
2014-12-2,56.9,40.1,24.6,27.0,22.2,15.0,82,51,28,25.36,25.15,19,6,32,0.00
2014-12-3,39.1,29.3,20.7,20.0,16.9,15.0,83,62,42,25.39,25.17,20,6,28,0.00
2014-12-4,52.1,36.7,24.0,29.0,23.4,16.0,80,61,39,25.23,25.13,19,4,21,0.00
2014-12-5,53.6,39.9,25.8,32.0,29.3,23.0,89,68,44,25.56,25.20,9,3,14,0.00
2014-12-6,46.9,34.1,23.5,32.0,27.4,20.0,92,77,57,25.56,25.39,9,2,18,0.00
2014-12-7,56.2,40.1,26.0,31.0,26.1,20.0,85,60,34,25.50,25.38,24,6,27,0.00
2014-12-8,54.6,34.2,22.0,29.0,22.5,17.0,83,66,33,25.51,25.46,11,2,13,0.00
2014-12-9,60.0,36.6,22.1,29.0,22.2,18.0,84,61,21,25.48,25.32,14,3,16,0.00
2014-12-10,59.6,38.7,27.0,24.0,20.3,16.0,74,51,25,25.36,25.30,11,4,14,0.00
2014-12-11,65.2,39.8,25.2,28.0,18.3,12.0,78,49,13,25.31,25.21,9,4,15,0.00
2014-12-12,66.3,40.1,23.8,27.0,19.4,15.0,73,50,14,25.29,25.19,11,3,16,0.00
2014-12-13,49.3,32.2,20.4,32.0,24.2,15.0,92,74,42,25.19,24.98,6,1,9,0.00
2014-12-14,34.7,30.8,26.3,30.0,27.9,23.0,94,89,80,25.12,24.96,21,10,29,0.00
2014-12-15,29.5,24.7,15.6,26.0,21.4,11.0,93,87,75,25.41,25.12,32,13,37,0.00
2014-12-16,34.9,20.2,6.7,22.0,14.7,4.0,91,80,55,25.40,25.26,10,3,13,0.00
2014-12-17,41.4,23.2,14.0,29.0,18.8,12.0,92,84,61,25.27,25.14,9,2,12,0.00
2014-12-18,43.8,30.6,18.3,24.0,20.2,14.0,84,67,40,25.31,25.21,14,5,18,0.00
2014-12-19,44.6,30.5,18.3,23.0,18.3,13.0,80,63,38,25.30,25.21,18,6,25,0.00
2014-12-20,48.2,35.6,23.1,27.0,23.1,16.0,79,62,41,25.24,25.13,15,5,23,0.00
2014-12-21,48.1,37.9,26.9,35.0,26.9,20.0,95,66,42,25.13,24.80,22,7,29,0.01
2014-12-22,38.2,31.7,27.3,31.0,25.2,21.0,95,78,55,25.03,24.90,25,11,35,0.00
2014-12-23,30.9,26.7,20.2,24.0,19.6,13.0,89,75,61,25.34,25.03,31,17,45,0.00
2014-12-24,46.4,21.6,11.8,24.0,12.3,6.0,80,50,39,25.27,24.75,12,4,24,0.00
2014-12-25,41.2,29.1,18.9,30.0,23.8,17.0,93,82,58,25.14,24.70,24,8,27,0.00
2014-12-26,18.5,15.4,12.5,16.0,12.6,10.0,92,88,81,25.29,25.13,11,5,14,0.00
2014-12-27,25.2,11.2,0.9,12.0,3.5,-3.0,88,72,55,25.37,25.25,13,6,17,0.00
2014-12-28,35.5,20.9,0.6,20.0,10.6,-6.0,88,66,40,25.25,25.10,9,3,18,0.01
2014-12-29,19.9,7.4,-1.6,17.0,3.6,-6.0,90,84,79,25.66,25.20,15,9,21,0.00
2014-12-30,-0.3,-6.3,-19.8,-6.0,-11.3,-25.0,83,79,73,25.75,25.56,9,4,12,0.00
2014-12-31,21.3,2.2,-18.8,3.0,-8.7,-23.0,84,62,42,25.55,25.32,11,6,18,0.00
2015-1-1,28.8,13.2,-1.5,14.0,2.9,-10.0,76,64,48,25.31,25.21,11,4,14,0.00
2015-1-2,32.9,25.1,16.4,25.0,18.6,11.0,86,76,65,25.28,25.05,11,4,15,0.00